When you browse on this site, cookies collect data to enhance your experience and personalize the content and advertising you see.
Visit our Privacy Policy to learn more. By continuing to use the site, you agree to this use of cookies and data.
  • En España
  • Lista de países
  • Para 7 días
  • Temperatura del agua
  • El tiempo en el mapa
  • Informadores
  • user-avatar
    Iniciar sesión

    Tiempo cada hora Buenos Aires

    Hoy, 9 Diciembre, Lunes

    Tiempo Temperatura Precipitaciones Viento Presión Humedad
    00:00 +27°C° 0 mm 5 mps 755 mmHg 45%
    01:00 +26°C° 0 mm 4 mps 756 mmHg 47%
    02:00 +25°C° 0 mm 3 mps 756 mmHg 50%
    03:00 +25°C° 0 mm 3 mps 756 mmHg 51%
    04:00 +24°C° 0 mm 2 mps 756 mmHg 52%
    05:00 +24°C° 0 mm 1 mps 757 mmHg 54%
    06:00 +26°C° 0 mm 1 mps 757 mmHg 49%
    07:00 +27°C° 0 mm 2 mps 757 mmHg 45%
    08:00 +29°C° 0 mm 2 mps 757 mmHg 41%
    09:00 +31°C° 0 mm 2 mps 757 mmHg 35%
    10:00 +35°C° 0 mm 2 mps 756 mmHg 29%
    11:00 +37°C° 0 mm 2 mps 756 mmHg 23%
    12:00 +38°C° 0 mm 2 mps 755 mmHg 20%
    13:00 +39°C° 0 mm 3 mps 755 mmHg 16%
    14:00 +42°C° 0 mm 3 mps 754 mmHg 13%
    15:00 +40°C° 0 mm 3 mps 753 mmHg 14%
    16:00 +40°C° 0 mm 3 mps 753 mmHg 14%
    17:00 +39°C° 0 mm 3 mps 753 mmHg 15%
    18:00 +38°C° 0 mm 4 mps 753 mmHg 17%
    19:00 +36°C° 0 mm 5 mps 753 mmHg 19%
    20:00 +35°C° 0 mm 6 mps 754 mmHg 20%
    21:00 +34°C° 0 mm 6 mps 754 mmHg 24%
    22:00 +33°C° 0 mm 6 mps 754 mmHg 27%
    23:00 +32°C° 0 mm 7 mps 754 mmHg 30%

    Mañana, 10 Diciembre, Martes

    Tiempo Temperatura Precipitaciones Viento Presión Humedad
    00:00 +32°C° 0 mm 7 mps 754 mmHg 31%
    01:00 +32°C° 0 mm 6 mps 754 mmHg 32%
    02:00 +30°C° 0 mm 6 mps 754 mmHg 34%
    03:00 +30°C° 0 mm 6 mps 754 mmHg 35%
    04:00 +29°C° 0 mm 6 mps 754 mmHg 37%
    05:00 +29°C° 0 mm 6 mps 755 mmHg 39%
    06:00 +30°C° 0 mm 6 mps 755 mmHg 37%
    07:00 +32°C° 0 mm 6 mps 755 mmHg 35%
    08:00 +34°C° 0 mm 6 mps 755 mmHg 33%
    09:00 +36°C° 0 mm 6 mps 755 mmHg 29%
    10:00 +39°C° 0 mm 5 mps 754 mmHg 24%
    11:00 +41°C° 0 mm 5 mps 754 mmHg 20%
    12:00 +42°C° 0 mm 5 mps 753 mmHg 17%
    13:00 +43°C° 0 mm 4 mps 753 mmHg 15%
    14:00 +44°C° 0 mm 4 mps 752 mmHg 12%
    15:00 +43°C° 0 mm 4 mps 751 mmHg 13%
    16:00 +42°C° 0 mm 4 mps 751 mmHg 14%
    17:00 +41°C° 0 mm 4 mps 750 mmHg 16%
    18:00 +39°C° 0.1 mm 3 mps 751 mmHg 18%
    19:00 +37°C° 0.1 mm 2 mps 751 mmHg 20%
    20:00 +35°C° 0.1 mm 1 mps 752 mmHg 22%
    21:00 +35°C° 0 mm 3 mps 752 mmHg 24%
    22:00 +35°C° 0 mm 5 mps 752 mmHg 27%
    23:00 +34°C° 0 mm 6 mps 752 mmHg 29%

    Pasado mañana, 11 Diciembre, Miércoles

    Tiempo Temperatura Precipitaciones Viento Presión Humedad
    00:00 +33°C° 0 mm 6 mps 752 mmHg 30%
    01:00 +33°C° 0 mm 5 mps 752 mmHg 31%
    02:00 +32°C° 0 mm 5 mps 752 mmHg 32%
    03:00 +30°C° 0 mm 5 mps 752 mmHg 33%
    04:00 +30°C° 0 mm 4 mps 752 mmHg 33%
    05:00 +29°C° 0 mm 4 mps 752 mmHg 34%
    06:00 +30°C° 0 mm 3 mps 752 mmHg 32%
    07:00 +31°C° 0 mm 3 mps 752 mmHg 31%
    08:00 +33°C° 0 mm 3 mps 752 mmHg 29%
    09:00 +35°C° 0 mm 3 mps 751 mmHg 26%
    10:00 +38°C° 0 mm 3 mps 751 mmHg 22%
    11:00 +40°C° 0 mm 3 mps 750 mmHg 19%
    12:00 +38°C° 0.1 mm 4 mps 750 mmHg 24%
    13:00 +36°C° 0.1 mm 5 mps 749 mmHg 29%
    14:00 +34°C° 0.1 mm 5 mps 749 mmHg 34%
    15:00 +34°C° 0.1 mm 6 mps 749 mmHg 32%
    16:00 +34°C° 0.1 mm 6 mps 749 mmHg 31%
    17:00 +34°C° 0.1 mm 6 mps 749 mmHg 30%
    18:00 +32°C° 0.3 mm 5 mps 749 mmHg 39%
    19:00 +29°C° 0.3 mm 4 mps 750 mmHg 48%
    20:00 +27°C° 0.3 mm 3 mps 751 mmHg 57%
    21:00 +26°C° 0.1 mm 4 mps 751 mmHg 60%
    22:00 +26°C° 0.1 mm 5 mps 751 mmHg 63%
    23:00 +26°C° 0.1 mm 5 mps 751 mmHg 66%

    12 Diciembre, Jueves

    Tiempo Temperatura Precipitaciones Viento Presión Humedad
    00:00 +25°C° 0 mm 5 mps 751 mmHg 67%
    01:00 +25°C° 0 mm 4 mps 751 mmHg 68%
    02:00 +25°C° 0 mm 3 mps 751 mmHg 69%
    03:00 +23°C° 0 mm 4 mps 751 mmHg 67%
    04:00 +23°C° 0 mm 5 mps 751 mmHg 65%
    05:00 +22°C° 0 mm 6 mps 751 mmHg 62%
    06:00 +23°C° 0 mm 6 mps 751 mmHg 48%
    07:00 +24°C° 0 mm 6 mps 752 mmHg 33%
    08:00 +26°C° 0 mm 7 mps 752 mmHg 18%
    09:00 +28°C° 0 mm 7 mps 752 mmHg 18%
    10:00 +29°C° 0 mm 6 mps 753 mmHg 17%
    11:00 +30°C° 0 mm 6 mps 753 mmHg 17%
    12:00 +32°C° 0 mm 7 mps 753 mmHg 14%
    13:00 +32°C° 0 mm 7 mps 753 mmHg 12%
    14:00 +32°C° 0 mm 8 mps 753 mmHg 9%
    15:00 +31°C° 0 mm 8 mps 753 mmHg 12%
    16:00 +31°C° 0 mm 8 mps 754 mmHg 14%
    17:00 +29°C° 0 mm 8 mps 754 mmHg 17%
    18:00 +27°C° 0 mm 8 mps 755 mmHg 21%
    19:00 +24°C° 0 mm 8 mps 756 mmHg 24%
    20:00 +22°C° 0 mm 8 mps 757 mmHg 28%
    21:00 +21°C° 0 mm 8 mps 758 mmHg 30%
    22:00 +20°C° 0 mm 8 mps 759 mmHg 32%
    23:00 +18°C° 0 mm 8 mps 759 mmHg 34%

    13 Diciembre, Viernes

    Tiempo Temperatura Precipitaciones Viento Presión Humedad
    00:00 +17°C° 0 mm 7 mps 760 mmHg 37%
    01:00 +16°C° 0 mm 6 mps 760 mmHg 39%
    02:00 +15°C° 0 mm 5 mps 760 mmHg 42%
    03:00 +15°C° 0 mm 4 mps 760 mmHg 43%
    04:00 +16°C° 0 mm 3 mps 761 mmHg 44%
    05:00 +14°C° 0 mm 3 mps 761 mmHg 46%
    06:00 +17°C° 0 mm 2 mps 761 mmHg 41%
    07:00 +18°C° 0 mm 2 mps 761 mmHg 36%
    08:00 +20°C° 0 mm 2 mps 761 mmHg 31%
    09:00 +23°C° 0 mm 2 mps 761 mmHg 28%
    10:00 +24°C° 0 mm 2 mps 761 mmHg 24%
    11:00 +26°C° 0 mm 2 mps 761 mmHg 20%
    12:00 +27°C° 0 mm 2 mps 760 mmHg 19%
    13:00 +28°C° 0 mm 3 mps 759 mmHg 17%
    14:00 +29°C° 0 mm 3 mps 759 mmHg 15%
    15:00 +29°C° 0 mm 3 mps 758 mmHg 15%
    16:00 +29°C° 0 mm 3 mps 758 mmHg 16%
    17:00 +28°C° 0 mm 3 mps 758 mmHg 16%
    18:00 +27°C° 0 mm 4 mps 758 mmHg 19%
    19:00 +26°C° 0 mm 5 mps 758 mmHg 22%
    20:00 +23°C° 0 mm 5 mps 758 mmHg 26%
    21:00 +23°C° 0 mm 6 mps 759 mmHg 26%
    22:00 +22°C° 0 mm 6 mps 759 mmHg 26%
    23:00 +22°C° 0 mm 7 mps 759 mmHg 27%

    14 Diciembre, Sábado

    Tiempo Temperatura Precipitaciones Viento Presión Humedad
    00:00 +21°C° 0 mm 7 mps 759 mmHg 29%
    01:00 +21°C° 0 mm 8 mps 759 mmHg 32%
    02:00 +20°C° 0 mm 8 mps 758 mmHg 34%
    03:00 +20°C° 0 mm 8 mps 759 mmHg 38%
    04:00 +18°C° 0 mm 8 mps 759 mmHg 42%
    05:00 +18°C° 0 mm 8 mps 759 mmHg 46%
    06:00 +20°C° 0 mm 7 mps 759 mmHg 43%
    07:00 +21°C° 0 mm 7 mps 760 mmHg 41%
    08:00 +22°C° 0 mm 6 mps 760 mmHg 38%
    09:00 +25°C° 0 mm 5 mps 760 mmHg 33%
    10:00 +27°C° 0 mm 4 mps 759 mmHg 28%
    11:00 +29°C° 0 mm 3 mps 759 mmHg 23%
    12:00 +31°C° 0 mm 3 mps 758 mmHg 20%
    13:00 +34°C° 0 mm 3 mps 757 mmHg 16%
    14:00 +36°C° 0 mm 2 mps 757 mmHg 13%
    15:00 +36°C° 0 mm 3 mps 756 mmHg 14%
    16:00 +36°C° 0 mm 4 mps 756 mmHg 14%
    17:00 +36°C° 0 mm 5 mps 755 mmHg 14%
    18:00 +35°C° 0 mm 4 mps 755 mmHg 18%
    19:00 +33°C° 0 mm 4 mps 756 mmHg 21%
    20:00 +30°C° 0 mm 4 mps 756 mmHg 25%
    21:00 +30°C° 0 mm 4 mps 756 mmHg 27%
    22:00 +29°C° 0 mm 4 mps 757 mmHg 29%
    23:00 +28°C° 0 mm 4 mps 757 mmHg 30%
    Mostrar más